Location: Valladolid
(41.6523°N, 4.7245°W)
Time: 02:33:05
(UTC+01:00)

ISS - Visible Passes

Search period start: 29 January 2020 00:00
Search period end: 08 February 2020 00:00
Orbit: 415 x 423 km, 51.6° (Epoch: 29 January)

Date Brightness Start Highest point End Pass type
(mag) Time Alt. Az. Time Alt. Az. Time Alt. Az.
29 Jan -1.5 19:16:17 10° NW 19:18:31 16° N 19:20:45 10° NNE visible
29 Jan -0.6 20:53:53 10° NNW 20:53:59 10° NNW 20:53:59 10° NNW visible
30 Jan -1.6 20:06:18 10° NNW 20:08:23 16° N 20:08:23 16° N visible
31 Jan -1.5 19:18:36 10° NW 19:20:39 15° N 19:22:44 10° NE visible
31 Jan -0.8 20:55:21 10° NW 20:55:46 12° NW 20:55:46 12° NW visible
01 Feb -2.0 20:07:52 10° NW 20:10:13 21° N 20:10:13 21° N visible
02 Feb -1.9 19:20:20 10° NNW 19:22:44 18° NNE 19:24:43 12° NE visible
02 Feb -1.1 20:56:45 10° NW 20:57:41 17° NW 20:57:41 17° NW visible
03 Feb -3.0 20:09:14 10° NW 20:12:15 37° NNE 20:12:15 37° NNE visible
04 Feb -2.5 19:21:43 10° NW 19:24:40 27° NNE 19:26:56 14° ENE visible
04 Feb -1.5 20:58:19 10° WNW 20:59:55 24° WNW 20:59:55 24° WNW visible
05 Feb -3.9 20:10:38 10° NW 20:14:02 89° SW 20:14:44 53° SE visible
06 Feb -3.6 19:23:01 10° NW 19:26:22 56° NNE 19:29:41 10° ESE visible
06 Feb -1.1 21:00:31 10° W 21:02:44 18° SW 21:02:44 18° SW visible
07 Feb -1.9 20:12:22 10° WNW 20:15:22 30° SW 20:17:58 12° SSE visible
